Regional Weather Roundup
Issued by NWS

Home | Current Version | Previous Version | Graphics & Text | Print | Product List | Glossary On
Versions: 1 2 3 4 5 6 7 8 9 10 11 12 13 14 15 16 17 18 19 20 21 22 23 24 25 26 27 28 29 30 31 32 33 34 35 36 37 38 39 40 41 42 43 44 45 46 47 48 49 50
573
ASUS44 KLIX 010511
RWRLA
LOUISIANA WEATHER ROUNDUP
NATIONAL WEATHER SERVICE NEW ORLEANS LA
1200 AM CDT WED APR 01 2015

NOTE: "FAIR" INDICATES FEW OR NO CLOUDS BELOW 12,000 FEET WITH NO
      SIGNIFICANT WEATHER AND/OR OBSTRUCTIONS TO VISIBILITY.
      SKY/WX - SKY CONDITION AND SIGNIFICANT WEATHER.
      TMP - AIR TEMPERATURE.    DP   - DEWPOINT TEMPERATURE.
      RH  - RELATIVE HUMIDITY.  PRES - PRESSURE.
      HX  - HEAT INDEX.         WCI  - WIND CHILL INDEX.

*  THESE STATIONS ARE NOT NWS OR FAA STATIONS AND ARE NOT UNDER
   NWS QUALITY CONTROL.

LAZ040-048-061>063-065-066-069-010600-
SOUTHEAST LOUISIANA

CITY           SKY/WX    TMP DP  RH WIND       PRES   REMARKS
N.O. AUDUBON     N/A     66  66 100 MISG        N/A
N.O. INTL ARPT PTCLDY    68  62  81 SW9       30.06F
N.O. LAKEFRONT CLEAR     70  63  78 SW7       30.07S
SLIDELL        PTCLDY    68  63  84 CALM      30.05F
BATON ROUGE    MOCLDY    67  63  87 SW8       30.05S
BOOTHVILLE     CLEAR     72  67  84 SW9       30.08F
BELLE CHASSE   CLEAR     61  59  93 CALM      30.06F
BOGALUSA*        N/A     67  59  75 SW5       30.06S
GALLIANO*      CLEAR     61  59  95 CALM      30.07F
NEW ROADS*     FAIR      65  59  81 S7        30.05S
GONZALES*      FAIR      63  63 100 S3        30.05F
HAMMOND*       MOCLDY    64  59  82 CALM      30.07S
HOUMA*         PTCLDY    60  60  99 CALM      30.06F FOG
PORT FOURCHON* CLEAR     72  68  88 SW6       30.11S

$$

LAZ041-044-053-054-010600-
SOUTHWEST LOUISIANA

CITY           SKY/WX    TMP DP  RH WIND       PRES   REMARKS
LAKE CHARLES   CLOUDY    69  66  90 S5        30.01F
LAFAYETTE      MOCLDY    65  62  90 S3        30.04F
PATTERSON      PTCLDY    64  61  88 S3        30.07S
SALT POINT       N/A     67  65  93 CALM      30.04F
NEW IBERIA     MOCLDY    63  61  93 CALM      30.05F FOG
CHENAULT AIRPK CLOUDY    64  64  98 S3        30.02F

$$

LAZ027-028-010600-
CENTRAL LOUISIANA

CITY           SKY/WX    TMP DP  RH WIND       PRES   REMARKS
FORT POLK      PTCLDY    66  64  91 S7        30.00F FOG
ALEXANDRIA INT MOCLDY    67  63  87 S7        29.99F
ALEXANDRIA     PTCLDY    68  62  81 SW5       30.02S

$$

LAZ001-002-010600-
NORTHWEST LOUISIANA

CITY           SKY/WX    TMP DP  RH WIND       PRES   REMARKS
SHREVEPORT     MOCLDY    66  58  75 SW5       29.96S
BARKSDALE AFB  CLEAR     61  58  91 S5        29.96S
DTN SHREVEPORT CLEAR     67  57  70 S7        29.96S

$$

LAZ014-016-010600-
NORTHEAST LOUISIANA

CITY           SKY/WX    TMP DP  RH WIND       PRES   REMARKS
MONROE         CLEAR     67  60  78 S7        29.99S
TALLULAH       CLEAR     71  57  61 SW8       29.99F

$$




USA.gov is the U.S. government's official web portal to all federal, state and local government web resources and services.